Zurück zum Katalog

CZ-6A DEB

AktivPO
NORAD 57834·DEBRIS·🇨🇳 China

Gestartet Sep 10, 2023 von Taiyuan Satellite Launch Center

Loading…

Nächste Überflüge (nächste 24 Stunden)

TLE

AktuellSource: Space-Track

Epoche: Sep 14, 2026, 06:15 UTC

1 57834U 23139E   26257.26056250  .00000266  00000-0  98662-4 0  9992
2 57834  85.9932 207.2163 0011637 352.3741   7.7272 14.28440338156979

Verfolge CZ-6A DEB in Echtzeit mit AllMySat

Download on the App Store